| time (UTC) | temp F | wind direction | speed MPH | gust MPH | rain 1hr in | rain 24hr in | rain mn in | humidity % | barometer mb |
| 20260906093034 | 55 | 74 | 3.0 | 4.0 | 0.00 | 0.00 | 0.00 | 55 | 1027.5 |
| 20260906091540 | 55 | 68 | 2.0 | 4.0 | 0.00 | 0.00 | 0.00 | 54 | 1027.4 |
| 20260906090037 | 55 | 71 | 2.0 | 4.0 | 0.00 | 0.00 | 0.00 | 53 | 1027.0 |
| 20260906084538 | 56 | 67 | 2.0 | 4.0 | 0.00 | 0.00 | 0.00 | 53 | 1027.1 |
| 20260906083035 | 55 | 50 | 3.0 | 8.0 | 0.00 | 0.00 | 0.00 | 53 | 1027.2 |
| 20260906081541 | 56 | 81 | 4.0 | 7.0 | 0.00 | 0.00 | 0.00 | 52 | 1027.0 |
| 20260906080037 | 57 | 69 | 3.0 | 6.0 | 0.00 | 0.00 | 0.00 | 51 | 1027.2 |
| 20260906074534 | 57 | 66 | 4.0 | 7.0 | 0.00 | 0.00 | 0.00 | 51 | 1027.0 |
| 20260906073041 | 58 | 87 | 4.0 | 6.0 | 0.00 | 0.00 | 0.00 | 49 | 1027.0 |
| 20260906071536 | 59 | 73 | 3.0 | 8.0 | 0.00 | 0.00 | 0.00 | 49 | 1027.1 |
| 20260906070037 | 59 | 78 | 3.0 | 6.0 | 0.00 | 0.00 | 0.00 | 48 | 1027.1 |
| 20260906064537 | 59 | 71 | 1.0 | 3.0 | 0.00 | 0.00 | 0.00 | 47 | 1027.1 |
| 20260906063037 | 60 | 75 | 3.0 | 5.0 | 0.00 | 0.00 | 0.00 | 48 | 1027.2 |
| 20260906061538 | 60 | 74 | 4.0 | 7.0 | 0.00 | 0.00 | 0.00 | 48 | 1027.0 |
| 20260906060049 | 60 | 61 | 2.0 | 5.0 | 0.00 | 0.00 | 0.00 | 48 | 1027.0 |
| 20260906054534 | 60 | 66 | 3.0 | 6.0 | 0.00 | 0.00 | 0.00 | 48 | 1027.0 |
| 20260906053038 | 59 | 94 | 5.0 | 9.0 | 0.00 | 0.00 | 0.00 | 48 | 1026.9 |
| 20260906051536 | 60 | 54 | 6.0 | 9.0 | 0.00 | 0.00 | 0.00 | 49 | 1026.9 |
| 20260906050038 | 60 | 73 | 5.0 | 9.0 | 0.00 | 0.00 | 0.00 | 49 | 1026.9 |
| 20260906044535 | 60 | 55 | 5.0 | 10.0 | 0.00 | 0.00 | 0.00 | 49 | 1027.0 |
| 20260906043040 | 60 | 86 | 6.0 | 10.0 | 0.00 | 0.00 | 0.00 | 49 | 1027.1 |
| 20260906041537 | 60 | 71 | 6.0 | 9.0 | 0.00 | 0.00 | 0.00 | 49 | 1027.0 |
| 20260906040040 | 61 | 63 | 6.0 | 10.0 | 0.00 | 0.00 | 0.00 | 48 | 1026.9 |
| 20260906034536 | 62 | 73 | 4.0 | 9.0 | 0.00 | 0.00 | 0.00 | 47 | 1026.9 |
| 20260906033037 | 63 | 71 | 5.0 | 8.0 | 0.00 | 0.00 | 0.00 | 46 | 1026.7 |
| 20260906031603 | 63 | 75 | 4.0 | 8.0 | 0.00 | 0.00 | 0.00 | 46 | 1026.7 |
| 20260906030037 | 65 | 80 | 4.0 | 8.0 | 0.00 | 0.00 | 0.00 | 44 | 1026.3 |
| 20260906024542 | 66 | 74 | 4.0 | 9.0 | 0.00 | 0.00 | 0.00 | 43 | 1026.2 |
| 20260906023048 | 67 | 57 | 2.0 | 5.0 | 0.00 | 0.00 | 0.00 | 41 | 1026.0 |
| 20260906021536 | 68 | 43 | 2.0 | 5.0 | 0.00 | 0.00 | 0.00 | 39 | 1025.6 |
| 20260906020045 | 69 | 19 | 2.0 | 4.0 | 0.00 | 0.00 | 0.00 | 37 | 1025.5 |
| 20260906014539 | 71 | 331 | 2.0 | 5.0 | 0.00 | 0.00 | 0.00 | 35 | 1025.2 |
| 20260906013039 | 74 | 305 | 2.0 | 8.0 | 0.00 | 0.00 | 0.00 | 33 | 1025.2 |
| 20260906011538 | 76 | 276 | 4.0 | 9.0 | 0.00 | 0.00 | 0.00 | 31 | 1025.3 |
| 20260906010038 | 78 | 266 | 5.0 | 10.0 | 0.00 | 0.00 | 0.00 | 30 | 1025.3 |
| 20260906004546 | 78 | 269 | 6.0 | 11.0 | 0.00 | 0.00 | 0.00 | 30 | 1025.3 |
| 20260906003034 | 78 | 231 | 7.0 | 13.0 | 0.00 | 0.00 | 0.00 | 30 | 1025.2 |
| 20260906001544 | 78 | 254 | 8.0 | 16.0 | 0.00 | 0.00 | 0.00 | 30 | 1025.2 |
| 20260906000035 | 78 | 291 | 8.0 | 13.0 | 0.00 | 0.00 | 0.00 | 30 | 1025.1 |
| 20260905234536 | 79 | 294 | 8.0 | 19.0 | 0.00 | 0.00 | 0.00 | 29 | 1025.2 |
| 20260905233043 | 80 | 300 | 6.0 | 14.0 | 0.00 | 0.00 | 0.00 | 28 | 1025.1 |
| 20260905231537 | 81 | 311 | 6.0 | 14.0 | 0.00 | 0.00 | 0.00 | 28 | 1025.0 |
| 20260905230036 | 80 | 263 | 11.0 | 18.0 | 0.00 | 0.00 | 0.00 | 27 | 1025.0 |
| 20260905224534 | 80 | 269 | 10.0 | 18.0 | 0.00 | 0.00 | 0.00 | 28 | 1025.0 |
| 20260905223039 | 81 | 223 | 9.0 | 17.0 | 0.00 | 0.00 | 0.00 | 26 | 1024.9 |
| 20260905221549 | 82 | 266 | 8.0 | 17.0 | 0.00 | 0.00 | 0.00 | 26 | 1025.1 |
| 20260905220035 | 83 | 269 | 8.0 | 17.0 | 0.00 | 0.00 | 0.00 | 26 | 1025.4 |
| 20260905214535 | 0 | 0.0 | 0.0 | 0.00 | 0.00 | 0.00 | 1025.4 | ||
| 20260905213035 | 0 | 0.0 | 0.0 | 0.00 | 0.00 | 0.00 | 1025.7 | ||
| 20260905211535 | 0 | 0.0 | 0.0 | 0.00 | 0.00 | 0.00 | 1025.8 | ||
| 20260905210036 | 0 | 0.0 | 0.0 | 0.00 | 0.00 | 0.00 | 1026.1 | ||
| 20260905204541 | 0 | 0.0 | 0.0 | 0.00 | 0.00 | 0.00 | 1026.4 | ||
| 20260905203034 | 0 | 0.0 | 0.0 | 0.00 | 0.00 | 0.00 | 1026.3 | ||
| 20260905201534 | 0 | 0.0 | 0.0 | 0.00 | 0.00 | 0.00 | 1026.5 | ||
| 20260905200041 | 0 | 0.0 | 0.0 | 0.00 | 0.00 | 0.00 | 1026.3 | ||
| 20260905194537 | 0 | 0.0 | 0.0 | 0.00 | 0.00 | 0.00 | 1026.6 | ||
| 20260905193041 | 0 | 0.0 | 0.0 | 0.00 | 0.00 | 0.00 | 1026.7 | ||
| 20260905191533 | 79 | 255 | 11.0 | 17.0 | 0.00 | 0.00 | 0.00 | 29 | 1027.2 |
| 20260905190045 | 79 | 232 | 9.0 | 16.0 | 0.00 | 0.00 | 0.00 | 29 | 1027.4 |
| 20260905184536 | 79 | 240 | 11.0 | 17.0 | 0.00 | 0.00 | 0.00 | 30 | 1027.6 |
| 20260905183038 | 78 | 227 | 7.0 | 16.0 | 0.00 | 0.00 | 0.00 | 30 | 1027.6 |
| 20260905181535 | 78 | 199 | 10.0 | 16.0 | 0.00 | 0.00 | 0.00 | 30 | 1027.9 |
| 20260905180115 | 78 | 206 | 9.0 | 17.0 | 0.00 | 0.00 | 0.00 | 32 | 1028.0 |
| 20260905174534 | 77 | 135 | 5.0 | 16.0 | 0.00 | 0.00 | 0.00 | 32 | 1028.0 |
| 20260905173043 | 76 | 221 | 7.0 | 12.0 | 0.00 | 0.00 | 0.00 | 32 | 1028.3 |
| 20260905171548 | 76 | 223 | 6.0 | 11.0 | 0.00 | 0.00 | 0.00 | 33 | 1028.4 |
| 20260905170038 | 75 | 231 | 3.0 | 6.0 | 0.00 | 0.00 | 0.00 | 36 | 1028.4 |
| 20260905164536 | 75 | 157 | 2.0 | 5.0 | 0.00 | 0.00 | 0.00 | 37 | 1028.5 |
| 20260905163037 | 71 | 215 | 2.0 | 4.0 | 0.00 | 0.00 | 0.00 | 40 | 1028.6 |
| 20260905161536 | 68 | 233 | 1.0 | 4.0 | 0.00 | 0.00 | 0.00 | 44 | 1028.6 |
| 20260905160050 | 66 | 210 | 2.0 | 4.0 | 0.00 | 0.00 | 0.00 | 45 | 1028.5 |
| 20260905154540 | 66 | 190 | 2.0 | 6.0 | 0.00 | 0.00 | 0.00 | 45 | 1028.6 |
| 20260905153036 | 65 | 227 | 4.0 | 7.0 | 0.00 | 0.00 | 0.00 | 47 | 1028.7 |
| 20260905151538 | 66 | 218 | 4.0 | 7.0 | 0.00 | 0.00 | 0.00 | 47 | 1028.5 |
| 20260905150038 | 67 | 246 | 4.0 | 6.0 | 0.00 | 0.00 | 0.00 | 45 | 1028.5 |
| 20260905144538 | 66 | 355 | 1.0 | 4.0 | 0.00 | 0.00 | 0.00 | 46 | 1028.5 |
| 20260905143034 | 63 | 31 | 2.0 | 4.0 | 0.00 | 0.00 | 0.00 | 49 | 1028.7 |
| 20260905141535 | 60 | 28 | 2.0 | 5.0 | 0.00 | 0.00 | 0.00 | 52 | 1028.8 |
| 20260905140037 | 58 | 186 | 1.0 | 6.0 | 0.00 | 0.00 | 0.00 | 55 | 1029.0 |
| 20260905134534 | 55 | 17 | 2.0 | 4.0 | 0.00 | 0.00 | 0.00 | 60 | 1028.6 |
| 20260905133034 | 52 | 25 | 3.0 | 6.0 | 0.00 | 0.00 | 0.00 | 62 | 1028.5 |
| 20260905131534 | 51 | 37 | 2.0 | 4.0 | 0.00 | 0.00 | 0.00 | 63 | 1028.2 |
| 20260905130034 | 51 | 28 | 1.0 | 4.0 | 0.00 | 0.00 | 0.00 | 63 | 1028.1 |
| 20260905124536 | 51 | 34 | 1.0 | 4.0 | 0.00 | 0.00 | 0.00 | 64 | 1027.9 |
| 20260905123034 | 51 | 52 | 2.0 | 3.0 | 0.00 | 0.00 | 0.00 | 62 | 1027.9 |
| 20260905121540 | 51 | 86 | 1.0 | 3.0 | 0.00 | 0.00 | 0.00 | 61 | 1027.7 |
| 20260905120052 | 52 | 58 | 0.0 | 3.0 | 0.00 | 0.00 | 0.00 | 60 | 1027.6 |
| 20260905114537 | 52 | 58 | 2.0 | 5.0 | 0.00 | 0.00 | 0.00 | 60 | 1027.5 |
| 20260905113050 | 53 | 61 | 3.0 | 4.0 | 0.00 | 0.00 | 0.00 | 59 | 1027.6 |
| 20260905111615 | 53 | 71 | 2.0 | 5.0 | 0.00 | 0.00 | 0.00 | 58 | 1027.5 |
| 20260905110035 | 54 | 66 | 2.0 | 5.0 | 0.00 | 0.00 | 0.00 | 56 | 1027.4 |
| 20260905104533 | 54 | 69 | 2.0 | 5.0 | 0.00 | 0.00 | 0.00 | 55 | 1027.4 |
| 20260905103038 | 55 | 70 | 3.0 | 4.0 | 0.00 | 0.00 | 0.00 | 54 | 1027.3 |
| 20260905101535 | 56 | 75 | 1.0 | 3.0 | 0.00 | 0.00 | 0.00 | 53 | 1027.3 |
| 20260905100038 | 56 | 75 | 1.0 | 3.0 | 0.00 | 0.00 | 0.00 | 52 | 1027.2 |
| 20260905094535 | 56 | 69 | 4.0 | 6.0 | 0.00 | 0.00 | 0.00 | 53 | 1027.3 |